This is the latest recevied weather packets stored in our database for station/object MB7UKY-10. If no packets are shown the sender has not sent any weather packets the latest 1 day(s).
| Time | Temp. | Humidity | Pressure | Rain* | Wind** | Luminosity | Snow |
|---|---|---|---|---|---|---|---|
| 1778048035 | 13.89° C | 54% | 1007.8 hPa | - | - | - | - |
| 1778046234 | 13.89° C | 53% | 1007.8 hPa | - | - | - | - |
| 1778045333 | 13.89° C | 53% | 1007.8 hPa | - | - | - | - |
| 1778044432 | 13.89° C | 53% | 1007.8 hPa | - | - | - | - |
| 1778042631 | 13.89° C | 53% | 1007.7 hPa | - | - | - | - |
| 1778041730 | 13.89° C | 52% | 1007.8 hPa | - | - | - | - |
| 1778040829 | 13.89° C | 52% | 1007.7 hPa | - | - | - | - |
| 1778039028 | 13.89° C | 52% | 1007.7 hPa | - | - | - | - |
| 1778038127 | 13.89° C | 52% | 1007.8 hPa | - | - | - | - |
| 1778037226 | 13.89° C | 52% | 1007.9 hPa | - | - | - | - |
| 1778036325 | 13.89° C | 52% | 1008.1 hPa | - | - | - | - |
| 1778035425 | 14.44° C | 51% | 1008.1 hPa | - | - | - | - |
| 1778034524 | 14.44° C | 50% | 1008.3 hPa | - | - | - | - |
| 1778033623 | 15° C | 50% | 1008.1 hPa | - | - | - | - |
| 1778032722 | 14.44° C | 50% | 1008.3 hPa | - | - | - | - |
| 1778031822 | 15° C | 49% | 1008.3 hPa | - | - | - | - |
| 1778030921 | 15° C | 49% | 1008.5 hPa | - | - | - | - |
| 1778030020 | 15° C | 49% | 1008.5 hPa | - | - | - | - |
| 1778029119 | 15.56° C | 49% | 1008.5 hPa | - | - | - | - |
| 1778028219 | 15.56° C | 50% | 1008.7 hPa | - | - | - | - |
| 1778027318 | 15.56° C | 50% | 1008.7 hPa | - | - | - | - |
| 1778025516 | 16.11° C | 49% | 1009 hPa | - | - | - | - |
| 1778021913 | 17.22° C | 48% | 1009.3 hPa | - | - | - | - |
| 1778018310 | 17.78° C | 48% | 1009.5 hPa | - | - | - | - |
| 1778014707 | 17.78° C | 49% | 1009.5 hPa | - | - | - | - |
* Rain since midnight (hover to see other rain measurements)
** Current wind speed in m/s (hover to see current wind gust speed)